This is the latest recevied weather packets stored in our database for station/object WB6ANP. If no packets are shown the sender has not sent any weather packets the latest 1 day(s).
| Time | Temp. | Humidity | Pressure | Rain* | Wind** | Luminosity | Snow |
|---|---|---|---|---|---|---|---|
| 1778043285 | 15.56° C | 77% | 1010.2 hPa | 0 mm | 2.68 m/s, 72° | 0 W/m² | - |
| 1778042982 | 15.56° C | 77% | 1010 hPa | 0 mm | 2.68 m/s, 64° | 0 W/m² | - |
| 1778042681 | 15.56° C | 76% | 1009.9 hPa | 0 mm | 0.45 m/s, 52° | 0 W/m² | - |
| 1778042377 | 15.56° C | 76% | 1009.8 hPa | 0 mm | 3.58 m/s, 23° | 0 W/m² | - |
| 1778042074 | 15.56° C | 77% | 1009.8 hPa | 0 mm | 1.79 m/s, 54° | 0 W/m² | - |
| 1778041772 | 15.56° C | 77% | 1009.8 hPa | 0 mm | 2.24 m/s, 32° | 0 W/m² | - |
| 1778041471 | 15.56° C | 76% | 1009.9 hPa | 0 mm | 0 m/s | 0 W/m² | - |
| 1778041169 | 15.56° C | 76% | 1009.9 hPa | 0 mm | 2.24 m/s, 61° | 0 W/m² | - |
| 1778040866 | 15.56° C | 76% | 1009.9 hPa | 0 mm | 1.34 m/s, 67° | 0 W/m² | - |
| 1778040563 | 16.11° C | 76% | 1009.6 hPa | 0 mm | 3.58 m/s, 36° | 0 W/m² | - |
| 1778040261 | 16.11° C | 76% | 1009.8 hPa | 0 mm | 1.34 m/s, 55° | 0 W/m² | - |
| 1778039956 | 16.11° C | 75% | 1010 hPa | 0 mm | 4.02 m/s, 346° | 0 W/m² | - |
| 1778039654 | 16.11° C | 75% | 1009.8 hPa | 0 mm | 2.24 m/s, 91° | 0 W/m² | - |
| 1778039351 | 16.11° C | 74% | 1009.6 hPa | 0 mm | 1.34 m/s, 56° | 0 W/m² | - |
| 1778039048 | 16.67° C | 74% | 1009.8 hPa | 0 mm | 2.68 m/s, 28° | 0 W/m² | - |
| 1778038745 | 16.67° C | 74% | 1010 hPa | 0 mm | 2.68 m/s, 22° | 0 W/m² | - |
| 1778038443 | 16.67° C | 74% | 1009.8 hPa | 0 mm | 4.02 m/s, 359° | 0 W/m² | - |
| 1778038139 | 16.67° C | 74% | 1009.7 hPa | 0 mm | 2.24 m/s, 51° | 0 W/m² | - |
| 1778037836 | 16.67° C | 74% | 1009.6 hPa | 0 mm | 1.79 m/s, 30° | 0 W/m² | - |
| 1778037533 | 17.22° C | 74% | 1009.3 hPa | 0 mm | 1.79 m/s, 340° | 0 W/m² | - |
| 1778037230 | 17.22° C | 73% | 1009.3 hPa | 0 mm | 1.79 m/s, 21° | 0 W/m² | - |
| 1778036928 | 17.22° C | 73% | 1008.9 hPa | 0 mm | 3.13 m/s, 3° | 0 W/m² | - |
| 1778036626 | 17.22° C | 73% | 1008.9 hPa | 0 mm | 2.24 m/s, 34° | 0 W/m² | - |
| 1778036322 | 17.78° C | 73% | 1008.7 hPa | 0 mm | 2.24 m/s, 28° | 0 W/m² | - |
| 1778036018 | 17.78° C | 73% | 1008.8 hPa | 0 mm | 2.68 m/s, 6° | 0 W/m² | - |
* Rain latest hour (hover to see other rain measurements)
** Current wind speed in m/s (hover to see current wind gust speed)